Weather History for KTOL - October, 2011

Change the Weather History Date:

Tuesday, October 11, 2011

  Actual Average Record
Temperature  
Mean Temperature 64 °F 54 °F  
Max Temperature 80 °F 65 °F 87 °F (1928)
Min Temperature 48 °F 43 °F 18 °F (1964)
Degree Days  
Heating Degree Days 1 12  
Month to date heating degree days 51 110  
Since 1 July heating degree days 189 234  
Cooling Degree Days 0 0  
Month to date cooling degree days 2 8  
Year to date cooling degree days 997 792  
Growing Degree Days 13 (Base 50)    
Moisture  
Dew Point 50 °F    
Average Humidity 64    
Maximum Humidity 100    
Minimum Humidity 28    
Precipitation  
Precipitation 0.00 in 0.09 in 0.76 in (2001)
Month to date precipitation 0.05 0.96  
Year to date precipitation 35.16 27.06  
Snow  
Snow 0.00 in 0.00 in - ()
Month to date snowfall 0.0 0.0  
Since 1 July snowfall 0.0 0.0  
Since 1 September snowfall 0.0 0.0  
Snow Depth 0.00 in    
Sea Level Pressure  
Sea Level Pressure 30.07 in    
Wind  
Wind Speed 2 mph (ESE)    
Max Wind Speed 10 mph    
Max Gust Speed 16 mph    
Visibility 7 miles    
Events      
T = Trace of Precipitation, MM = Missing Value Source: NWS Daily Summary

Daily Weather History Graph

Daily Weather History Graph

Search for Another Location

Airport or City:

Trip Planner

Search our weather history database for the weather conditions in past years. The results will help you decide how hot, cold, wet, or windy it might be!

Date:

Astronomy

Oct. 11, 2011 Rise Set
Actual Time 7:42 AM EDT 7:00 PM EDT
Civil Twilight 7:14 AM EDT 7:28 PM EDT
Nautical Twilight 6:42 AM EDT 8:00 PM EDT
Astronomical Twilight 6:10 AM EDT 8:32 PM EDT
Moon 6:31 PM EDT (10/11) 7:20 AM EDT (10/11)
Length of Visible Light 12h 13m
Length of Day
11h 18m
Full, 100% of the Moon is Illuminated
Oct 11
Full
Oct 11
Full
Oct 19
Last Quarter
Oct 26
New
Nov 2
First Quarter

Hourly Weather History & Observations

Time (EDT) Temp. Dew Point Humidity Pressure Visibility Wind Dir Wind Speed Gust Speed Precip Events Conditions
12:52 AM 53.1 °F 52.0 °F 96% 30.13 in 7.0 mi East 3.5 mph - N/A   Clear
1:52 AM 52.0 °F 51.1 °F 97% 30.12 in 7.0 mi Calm Calm - N/A   Clear
2:52 AM 51.8 °F 50.0 °F 94% 30.12 in 2.5 mi Calm Calm - N/A   Clear
2:59 AM 51.8 °F 50.0 °F 94% 30.12 in 3.0 mi Calm Calm - N/A   Clear
3:52 AM 50.0 °F 48.9 °F 96% 30.10 in 3.0 mi Calm Calm - N/A   Clear
4:52 AM 50.0 °F 48.9 °F 96% 30.11 in 8.0 mi Calm Calm - N/A   Clear
5:52 AM 48.9 °F 48.0 °F 97% 30.11 in 4.0 mi Calm Calm - N/A   Clear
6:52 AM 48.9 °F 46.9 °F 93% 30.11 in 5.0 mi Calm Calm - N/A   Clear
7:04 AM 48.2 °F 46.4 °F 93% 30.11 in 2.0 mi Calm Calm - N/A   Clear
7:14 AM 48.2 °F 46.4 °F 93% 30.11 in 5.0 mi Calm Calm - N/A   Clear
7:52 AM 50.0 °F 48.0 °F 93% 30.12 in 3.0 mi Calm Calm - N/A   Clear
8:52 AM 52.0 °F 50.0 °F 93% 30.12 in 5.0 mi Calm Calm - N/A   Clear
9:52 AM 57.2 °F 53.6 °F 88% 30.11 in 5.0 mi East 3.5 mph - N/A   Haze
10:52 AM 64.9 °F 53.1 °F 65% 30.11 in 10.0 mi SE 4.6 mph - N/A   Clear
11:52 AM 69.8 °F 53.6 °F 56% 30.09 in 10.0 mi East 4.6 mph - N/A   Clear
12:52 PM 73.9 °F 53.1 °F 48% 30.08 in 10.0 mi Calm Calm - N/A   Clear
1:52 PM 78.1 °F 46.9 °F 33% 30.05 in 10.0 mi Variable 3.5 mph - N/A   Clear
2:52 PM 78.1 °F 43.0 °F 29% 30.03 in 10.0 mi Variable 6.9 mph - N/A   Clear
3:52 PM 78.8 °F 42.8 °F 28% 30.02 in 10.0 mi SSE 5.8 mph - N/A   Clear
4:52 PM 77.0 °F 44.1 °F 31% 30.01 in 10.0 mi SSE 5.8 mph - N/A   Clear
5:52 PM 73.9 °F 45.0 °F 35% 30.01 in 10.0 mi ESE 3.5 mph - N/A   Clear
6:52 PM 66.9 °F 54.0 °F 63% 30.01 in 10.0 mi East 4.6 mph - N/A   Clear
7:52 PM 64.9 °F 54.0 °F 68% 30.01 in 10.0 mi ENE 4.6 mph - N/A   Clear
8:52 PM 63.0 °F 54.0 °F 72% 30.01 in 10.0 mi East 3.5 mph - N/A   Clear
9:52 PM 60.1 °F 55.0 °F 83% 30.00 in 10.0 mi Calm Calm - N/A   Clear
10:52 PM 60.1 °F 55.0 °F 83% 30.01 in 8.0 mi SE 3.5 mph - N/A   Clear
11:52 PM 57.0 °F 54.0 °F 89% 30.00 in 8.0 mi Calm Calm - N/A   Clear